Home   Weather   Rietberg   Past weeks

Flag for Germany Past Weather in Rietberg, North Rhine-Westphalia, Germany — Yesterday and Last 2 Weeks

Now
41 °F

Sunny.


Feels Like: 41 °F
Forecast: 28 / 38 °F
Wind: 2 mph from North

Location: Paderborn / Lippstadt

Current Time: Dec 3, 2016 at 2:57:28 pm

Latest Report: Dec 3, 2016 at 2:20 pm


Visibility: 10 mi

Pressure: 30.27 "Hg

Humidity: 61%

Dew Point: 28 °F

Location of RietbergLocation

Past Weather in Rietberg — Graph

°F

Rietberg Temperature Yesterday

Maximum temperature yesterday: 43 °F (at 12:20 am)
Minimum temperature yesterday: 28 °F (at 10:50 pm)
Average temperature yesterday: 39 °F

High & Low Weather Summary for the Past Weeks

 TemperatureHumidityPressure
High61 °F (Nov 21, 8:50 pm)100% (Nov 27, 9:50 am)30.57 "Hg (Nov 27, 9:50 am)
Low18 °F (Nov 29, 6:50 am)28% (Nov 30, 11:50 am)29.39 "Hg (Nov 20, 9:50 am)
Average40 °F77%30.06 "Hg
* Reported Nov 18 1:50 pm — Dec 3 1:20 pm, Rietberg, Weather by CustomWeather, © 2016

Note: Actual official high and low records may vary slightly from our data, if they occured in-between our weather recording intervals... More about our weather records

Advertising

Rietberg Weather History for the Previous 24 Hours

Scroll right to see more
 ConditionsComfort  
Time TempWeatherWind HumidityBarometerVisibility
1:20 pm
Sat, Dec 3
41 °FSunny.1 mph61%30.30 "Hg10 mi
12:50 pm39 °FSunny.1 mph65%30.30 "Hg10 mi
12:20 pm39 °FSunny.1 mph70%30.30 "Hg10 mi
11:50 am37 °FSunny.2 mph70%30.30 "Hg10 mi
11:20 am36 °FSunny.1 mph75%30.30 "Hg10 mi
10:50 am34 °FSunny.1 mph75%30.30 "Hg10 mi
10:20 am32 °FSunny.2 mph87%30.30 "Hg10 mi
9:50 am30 °FSunny.2 mph86%30.30 "Hg10 mi
9:20 am28 °FSunny.1 mph86%30.27 "Hg10 mi
8:50 am28 °FSunny.6 mph86%30.27 "Hg10 mi
8:20 am27 °FSunny.2 mph86%30.27 "Hg10 mi
7:50 am27 °FClear.3 mph93%30.27 "Hg10 mi
7:20 am27 °FPassing clouds.8 mph86%30.27 "HgN/A
6:50 am27 °FPassing clouds.6 mph86%30.27 "HgN/A
6:20 am27 °FPassing clouds.3 mph93%30.24 "HgN/A
5:50 am28 °FPassing clouds.6 mph86%30.24 "HgN/A
5:20 am28 °FPassing clouds.6 mph93%30.24 "HgN/A
4:50 am28 °FPassing clouds.3 mph86%30.24 "HgN/A
4:20 am27 °FPassing clouds.2 mph93%30.24 "HgN/A
3:50 am27 °FPassing clouds.2 mph93%30.24 "HgN/A
3:20 am27 °FClear.3 mph86%30.24 "Hg10 mi
2:50 am27 °FClear.3 mph86%30.24 "Hg10 mi
2:20 am27 °FClear.2 mph86%30.24 "Hg10 mi
1:50 am27 °FClear.3 mph86%30.24 "Hg10 mi
1:20 am27 °FClear.2 mph93%30.24 "Hg10 mi
12:50 am27 °FClear.3 mph93%30.24 "Hg10 mi
12:20 am28 °FClear.3 mph86%30.24 "Hg10 mi
11:50 pm
Fri, Dec 2
28 °FClear.3 mph86%30.24 "Hg10 mi
11:20 pm28 °FClear.3 mph93%30.24 "Hg10 mi
10:50 pm28 °FClear.5 mph86%30.24 "Hg10 mi
10:20 pm30 °FClear.3 mph86%30.24 "Hg10 mi
9:50 pm30 °FClear.2 mph86%30.24 "Hg10 mi
9:20 pm30 °FClear.2 mph93%30.24 "Hg10 mi
8:50 pm30 °FClear.2 mph86%30.21 "Hg10 mi
8:20 pm30 °FClear.3 mph86%30.21 "Hg10 mi
7:50 pm30 °FPassing clouds.3 mph86%30.21 "HgN/A
7:20 pm30 °FPassing clouds.3 mph86%30.21 "HgN/A
6:50 pm32 °FClear.7 mph87%30.21 "Hg10 mi
6:20 pm32 °FClear.7 mph87%30.21 "Hg10 mi
5:50 pm34 °FClear.5 mph87%30.21 "Hg10 mi
5:20 pm37 °FClear.3 mph75%30.21 "Hg10 mi
4:50 pm37 °FPassing clouds.3 mph75%30.21 "HgN/A
4:20 pm39 °FPassing clouds.1 mph70%30.18 "HgN/A
3:50 pm41 °FScattered clouds.3 mph66%30.18 "HgN/A
3:20 pm43 °FScattered clouds.6 mph61%30.18 "HgN/A
2:50 pm43 °FPassing clouds.6 mph61%30.18 "HgN/A
2:20 pm43 °FPassing clouds.6 mph66%30.18 "HgN/A
Weather by CustomWeather, © 2016

See weather overviewHow to use our weather pages